User: anonymous   Login
Location: Oshawa
(43.9000°N, 78.8670°W)
Time: 15:52:15
(UTC-05:00)
Language:

CARTOSAT-1 - Orbit

View from above orbital plane
View from above orbital plane
View from above satellite
View from above satellite

Ground track
Ground track

The orbit data is extracted from the following two-line orbital elements,

1 28649U 05017A   14327.44953682 -.00001506  00000-0 -17709-3 0  8226
2 28649 097.8201 038.2911 0002043 133.7537 226.3842 14.83458545517108
Epoch (UTC): 23 November 2014 10:47:19
Eccentricity: 0.0002043
inclination: 97.8201°
perigee height: 617 km
apogee height: 620 km
right ascension of ascending node: 38.2911°
argument of perigee: 133.7537°
revolutions per day: 14.83458545
mean anomaly at epoch: 226.3842°
orbit number at epoch: 51710

The dashed part of the orbit path shows where the satellite is in the earth's shadow,  

DLR